Time,TemperatureF,DewpointF,PressureIn,WindDirection,WindDirectionDegrees,WindSpeedMPH,WindSpeedGustMPH,Humidity,HourlyPrecipIn,Conditions,Clouds,dailyrainin,SolarRadiationWatts/m^2,SoftwareType,DateUTC
2013-01-14 04:00:00,4.0,1.0,-100.00,ESE,104,0.0,4.0,85,-99.99,,,0.00,0.000000,,2013-01-14 11:00:00,
2013-01-14 04:53:00,4.0,1.0,-100.00,ESE,104,0.0,4.0,85,-99.99,,,0.00,0.000000,,2013-01-14 11:53:00,
2013-01-14 05:00:00,7.0,3.0,-100.00,SE,132,1.0,3.0,84,-99.99,,,0.00,0.000000,,2013-01-14 12:00:00,
2013-01-14 05:53:00,7.0,3.0,-100.00,SE,132,1.0,3.0,84,-99.99,,,0.00,0.000000,,2013-01-14 12:53:00,
2013-01-14 06:00:00,7.0,3.0,-100.00,SE,145,1.0,5.0,83,-99.99,,,0.00,0.000000,,2013-01-14 13:00:00,
2013-01-14 06:53:00,7.0,3.0,-100.00,SE,145,1.0,5.0,83,-99.99,,,0.00,0.000000,,2013-01-14 13:53:00,
2013-01-14 07:00:00,6.0,2.0,-100.00,SE,133,0.0,3.0,84,-99.99,,,0.00,0.000000,,2013-01-14 14:00:00,
2013-01-14 07:53:00,6.0,2.0,-100.00,SE,133,0.0,3.0,84,-99.99,,,0.00,0.000000,,2013-01-14 14:53:00,
2013-01-14 08:00:00,8.0,3.0,-100.00,SE,135,1.0,8.0,83,-99.99,,,0.00,14.400000,,2013-01-14 15:00:00,
2013-01-14 08:53:00,8.0,3.0,-100.00,SE,135,1.0,8.0,83,-99.99,,,0.00,14.400000,,2013-01-14 15:53:00,
2013-01-14 09:00:00,10.0,6.0,-100.00,NNE,13,0.0,2.0,81,-99.99,,,0.00,51.000000,,2013-01-14 16:00:00,
2013-01-14 09:53:00,10.0,6.0,-100.00,NNE,13,0.0,2.0,81,-99.99,,,0.00,51.000000,,2013-01-14 16:53:00,
2013-01-14 10:00:00,12.0,5.0,-100.00,NNE,30,1.0,5.0,75,-99.99,,,0.00,92.199997,,2013-01-14 17:00:00,
2013-01-14 10:54:00,12.0,5.0,-100.00,NNE,30,1.0,5.0,75,-99.99,,,0.00,92.199997,,2013-01-14 17:54:00,
2013-01-14 11:00:00,13.0,6.0,-100.00,ENE,78,1.0,6.0,73,-99.99,,,0.00,96.199997,,2013-01-14 18:00:00,
2013-01-14 11:53:00,13.0,6.0,-100.00,ENE,78,1.0,6.0,73,-99.99,,,0.00,96.199997,,2013-01-14 18:53:00,
2013-01-14 12:00:00,14.0,7.0,-100.00,ENE,60,1.0,5.0,73,-99.99,,,-99.99,92.800003,,2013-01-14 19:00:00,
2013-01-14 12:53:00,14.0,7.0,-100.00,ENE,60,1.0,5.0,73,-99.99,,,-99.99,92.800003,,2013-01-14 19:53:00,
2013-01-14 14:00:00,15.0,9.0,-100.00,NNE,20,0.0,3.0,79,-99.99,,,-99.99,45.500000,,2013-01-14 21:00:00,
2013-01-14 14:53:00,15.0,9.0,-100.00,NNE,20,0.0,3.0,79,-99.99,,,-99.99,45.500000,,2013-01-14 21:53:00,
2013-01-14 15:00:00,13.0,9.0,-100.00,North,9,0.0,4.0,84,-99.99,,,-99.99,26.600000,,2013-01-14 22:00:00,
2013-01-14 15:53:00,13.0,9.0,-100.00,North,9,0.0,4.0,84,-99.99,,,-99.99,26.600000,,2013-01-14 22:53:00,
2013-01-14 16:00:00,12.0,9.0,-100.00,NE,48,0.0,5.0,85,-99.99,,,0.00,11.600000,,2013-01-14 23:00:00,
2013-01-14 16:53:00,12.0,9.0,-100.00,NE,48,0.0,5.0,85,-99.99,,,0.00,11.600000,,2013-01-14 23:53:00,
2013-01-14 17:00:00,12.0,9.0,-100.00,NNW,335,0.0,2.0,87,-99.99,,,0.00,7.300000,,2013-01-15 00:00:00,
2013-01-14 17:53:00,12.0,9.0,-100.00,NNW,335,0.0,2.0,87,-99.99,,,0.00,7.300000,,2013-01-15 00:53:00,
2013-01-14 19:00:00,6.0,3.0,-100.00,SSE,161,0.0,1.0,88,-99.99,,,0.00,0.000000,,2013-01-15 02:00:00,
2013-01-14 19:53:00,6.0,3.0,-100.00,SSE,161,0.0,1.0,88,-99.99,,,0.00,0.000000,,2013-01-15 02:53:00,
2013-01-14 20:00:00,5.0,3.0,-100.00,South,184,0.0,0.0,88,-99.99,,,0.00,0.000000,,2013-01-15 03:00:00,
2013-01-14 20:53:00,5.0,3.0,-100.00,South,184,0.0,0.0,88,-99.99,,,0.00,0.000000,,2013-01-15 03:53:00,
2013-01-14 21:00:00,3.0,0.0,-100.00,NW,304,0.0,0.0,87,-99.99,,,0.01,0.000000,,2013-01-15 04:00:00,
2013-01-14 21:52:00,3.0,0.0,-100.00,NW,304,0.0,0.0,87,-99.99,,,0.01,0.000000,,2013-01-15 04:52:00,
2013-01-14 22:00:00,7.0,4.0,-100.00,SSE,162,0.0,1.0,89,-99.99,,,0.00,0.000000,,2013-01-15 05:00:00,
2013-01-14 22:53:00,7.0,4.0,-100.00,SSE,162,0.0,1.0,89,-99.99,,,0.00,0.000000,,2013-01-15 05:53:00,
2013-01-14 23:00:00,7.0,4.0,-100.00,SSE,168,0.0,1.0,89,-99.99,,,0.01,0.000000,,2013-01-15 06:00:00,
2013-01-14 23:53:00,7.0,4.0,-100.00,SSE,168,0.0,1.0,89,-99.99,,,0.01,0.000000,,2013-01-15 06:53:00,